Regional Weather Roundup
Issued by NWS

Home | Current Version | Previous Version | Text Only | Print | Product List | Glossary Off
Versions: 1 2 3 4 5 6 7 8 9 10 11 12 13 14 15 16 17 18 19 20 21 22 23 24 25 26 27 28 29 30 31 32 33 34 35 36 37 38 39 40 41 42 43 44 45 46 47 48 49 50

000
ASUS43 KFSD 041702
RWRSD

WEATHER ROUNDUP FOR SOUTH DAKOTA
NATIONAL WEATHER SERVICE SIOUX FALLS SD
1200 PM CDT TUE AUG 04 2015

NOTE: "FAIR" INDICATES FEW OR NO CLOUDS BELOW 12,000 FEET WITH NO
SIGNIFICANT WEATHER AND/OR OBSTRUCTIONS TO VISIBILITY.


SDZ001>005-009-010-012>017-041800-
NORTHWEST AND NORTH CENTRAL SOUTH DAKOTA

CITY           SKY/WX    TMP DP  RH WIND       PRES   REMARKS
FAITH            N/A     79  58  48 S12G23    29.96F
MOBRIDGE       MOSUNNY   81  63  54 S10       29.95S
$$

SDZ012>016-024>037-041>051-057-063-072>074-041800-
SOUTHWEST AND SOUTH CENTRAL SOUTH DAKOTA

CITY           SKY/WX    TMP DP  RH WIND       PRES   REMARKS
RAPID CTY ARPT PTSUNNY   73  64  73 S13       29.97F
PIERRE         PTSUNNY   78  61  55 E9        29.94F
CUSTER         MOSUNNY   68  55  63 S8        30.08F
ELLSWORTH AFB  CLOUDY    72  64  75 S10       29.96S
PHILIP         MOSUNNY   77  65  66 E12       29.95S
PINE RIDGE     PTSUNNY   77  60  55 S26G36    29.95S
WINNER         FAIR      74  62  66 E10       29.95F
$$

SDZ004>011-016>023-039-040-041800-
NORTHEAST SOUTH DAKOTA

CITY           SKY/WX    TMP DP  RH WIND       PRES   REMARKS
ABERDEEN       MOSUNNY   79  58  48 E10       29.99R
WATERTOWN      MOSUNNY   76  55  48 VRB7      30.00F
BROOKINGS      PTSUNNY   72  55  56 SE9       30.02F
$$

SDZ017-020-022-023-036>040-048>070-041800-
SOUTHEAST SOUTH DAKOTA

CITY           SKY/WX    TMP DP  RH WIND       PRES   REMARKS
SIOUX FALLS    CLOUDY    75  61  61 E15       29.98F
HURON          PTSUNNY   77  63  61 SE5       29.96R
CHAMBERLAIN    CLOUDY    73  65  76 SE9       29.97F
MITCHELL       CLOUDY    76  66  71 SE8       29.97R
YANKTON        CLOUDY    73  64  73 SE13      29.95S
$$

ABBREVIATIONS USED IN REMARKS
   TC - TEMPERATURE IN CELSIUS
  WCI - WIND CHILL INDEX
   HX - HEAT INDEX
  VSB - VISIBILITY




USA.gov is the U.S. government's official web portal to all federal, state and local government web resources and services.